Data supplied by UK-AIR on 15/3/2018
All Data GMT hour ending 
Status: R =Ratified P=Provisional,P*=As supplied
,,Luton A505 Roadside,,,,,,,,,,,,,,,,,,,,,,,
Date,time,"Nitric oxide",status,unit,"Nitrogen dioxide",status,unit,"Nitrogen oxides as nitrogen dioxide",status,unit
 
01-01-2017,01:00,2.78934,R,ugm-3,8.50011,R,ugm-3,12.77703,R,ugm-3
01-01-2017,02:00,2.83827,R,ugm-3,8.95745,R,ugm-3,13.30941,R,ugm-3
01-01-2017,03:00,3.59678,R,ugm-3,7.43317,R,ugm-3,12.94815,R,ugm-3
01-01-2017,04:00,4.11060,R,ugm-3,8.01428,R,ugm-3,14.31712,R,ugm-3
01-01-2017,05:00,3.67018,R,ugm-3,8.40439,R,ugm-3,14.03192,R,ugm-3
01-01-2017,06:00,2.42232,R,ugm-3,8.20726,R,ugm-3,11.92143,R,ugm-3
01-01-2017,07:00,2.60583,R,ugm-3,7.29844,R,ugm-3,11.29398,R,ugm-3
01-01-2017,08:00,5.87229,R,ugm-3,10.96006,R,ugm-3,19.96411,R,ugm-3
01-01-2017,09:00,5.43187,R,ugm-3,12.09169,R,ugm-3,20.42043,R,ugm-3
01-01-2017,10:00,21.91098,R,ugm-3,18.48144,R,ugm-3,52.07781,R,ugm-3
01-01-2017,11:00,18.68122,R,ugm-3,18.07188,R,ugm-3,46.71602,R,ugm-3
01-01-2017,12:00,25.21414,R,ugm-3,34.40750,R,ugm-3,73.06864,R,ugm-3
01-01-2017,13:00,34.13268,R,ugm-3,36.01940,R,ugm-3,88.35544,R,ugm-3
01-01-2017,14:00,22.20459,R,ugm-3,27.27177,R,ugm-3,61.31834,R,ugm-3
01-01-2017,15:00,30.60930,R,ugm-3,23.85342,R,ugm-3,70.78703,R,ugm-3
01-01-2017,16:00,28.22369,R,ugm-3,28.02468,R,ugm-3,71.30039,R,ugm-3
01-01-2017,17:00,23.41575,R,ugm-3,26.04213,R,ugm-3,61.94578,R,ugm-3
01-01-2017,18:00,24.07638,R,ugm-3,35.41051,R,ugm-3,72.32712,R,ugm-3
01-01-2017,19:00,31.04973,R,ugm-3,32.53273,R,ugm-3,80.14164,R,ugm-3
01-01-2017,20:00,24.44340,R,ugm-3,34.56256,R,ugm-3,72.04192,R,ugm-3
01-01-2017,21:00,23.01203,R,ugm-3,27.11748,R,ugm-3,62.40210,R,ugm-3
01-01-2017,22:00,22.68171,R,ugm-3,31.38862,R,ugm-3,66.16676,R,ugm-3
01-01-2017,23:00,23.12214,R,ugm-3,21.47279,R,ugm-3,56.92623,R,ugm-3
01-01-2017,24:00,12.88233,R,ugm-3,26.73522,R,ugm-3,46.48786,R,ugm-3
02-01-2017,01:00,11.24566,R,ugm-3,16.44871,R,ugm-3,33.69181,R,ugm-3
02-01-2017,02:00,6.84518,R,ugm-3,11.25557,R,ugm-3,21.75137,R,ugm-3
02-01-2017,03:00,5.83063,R,ugm-3,9.94017,R,ugm-3,18.88034,R,ugm-3
02-01-2017,04:00,8.32423,R,ugm-3,11.19329,R,ugm-3,23.95693,R,ugm-3
02-01-2017,05:00,12.54135,R,ugm-3,15.56479,R,ugm-3,34.79459,R,ugm-3
02-01-2017,06:00,24.53265,R,ugm-3,23.93030,R,ugm-3,61.54650,R,ugm-3
02-01-2017,07:00,31.28004,R,ugm-3,28.70012,R,ugm-3,76.66218,R,ugm-3
02-01-2017,08:00,55.77601,R,ugm-3,44.41580,R,ugm-3,129.93783,R,ugm-3
02-01-2017,09:00,42.90463,R,ugm-3,54.68297,R,ugm-3,120.46914,R,ugm-3
02-01-2017,10:00,72.24112,R,ugm-3,50.94111,R,ugm-3,161.70929,R,ugm-3
02-01-2017,11:00,44.92151,R,ugm-3,44.63153,R,ugm-3,113.51022,R,ugm-3
02-01-2017,12:00,45.87495,R,ugm-3,45.45123,R,ugm-3,115.79183,R,ugm-3
02-01-2017,13:00,60.46985,R,ugm-3,43.43608,R,ugm-3,136.15523,R,ugm-3
02-01-2017,14:00,81.33544,R,ugm-3,59.07129,R,ugm-3,183.78389,R,ugm-3
02-01-2017,15:00,61.38662,R,ugm-3,53.32437,R,ugm-3,147.44921,R,ugm-3
02-01-2017,16:00,89.91636,R,ugm-3,73.40749,R,ugm-3,211.27732,R,ugm-3
02-01-2017,17:00,122.40653,R,ugm-3,94.89031,R,ugm-3,282.57771,R,ugm-3
02-01-2017,18:00,127.90712,R,ugm-3,92.44542,R,ugm-3,288.56694,R,ugm-3
02-01-2017,19:00,126.77033,R,ugm-3,86.65915,R,ugm-3,281.03762,R,ugm-3
02-01-2017,20:00,129.85067,R,ugm-3,110.28508,R,ugm-3,309.38666,R,ugm-3
02-01-2017,21:00,86.50599,R,ugm-3,79.26409,R,ugm-3,211.90476,R,ugm-3
02-01-2017,22:00,49.79870,R,ugm-3,64.24743,R,ugm-3,140.60437,R,ugm-3
02-01-2017,23:00,32.41683,R,ugm-3,54.96386,R,ugm-3,104.66897,R,ugm-3
02-01-2017,24:00,24.27595,R,ugm-3,49.64979,R,ugm-3,86.87240,R,ugm-3
03-01-2017,01:00,16.62401,R,ugm-3,38.92773,R,ugm-3,64.41753,R,ugm-3
03-01-2017,02:00,8.65427,R,ugm-3,32.02032,R,ugm-3,45.29001,R,ugm-3
03-01-2017,03:00,7.51748,R,ugm-3,29.37127,R,ugm-3,40.89790,R,ugm-3
03-01-2017,04:00,8.28756,R,ugm-3,28.64681,R,ugm-3,41.35423,R,ugm-3
03-01-2017,05:00,13.42145,R,ugm-3,33.95127,R,ugm-3,54.53054,R,ugm-3
03-01-2017,06:00,22.73578,R,ugm-3,38.83503,R,ugm-3,73.69608,R,ugm-3
03-01-2017,07:00,55.92270,R,ugm-3,50.23717,R,ugm-3,135.98411,R,ugm-3
03-01-2017,08:00,65.05368,R,ugm-3,67.89389,R,ugm-3,167.64148,R,ugm-3
03-01-2017,09:00,56.32607,R,ugm-3,74.54528,R,ugm-3,160.91072,R,ugm-3
03-01-2017,10:00,56.32607,R,ugm-3,56.74870,R,ugm-3,143.11414,R,ugm-3
03-01-2017,11:00,48.95528,R,ugm-3,54.76004,R,ugm-3,129.82375,R,ugm-3
03-01-2017,12:00,49.57868,R,ugm-3,65.83968,R,ugm-3,141.85926,R,ugm-3
03-01-2017,13:00,36.92731,R,ugm-3,53.06743,R,ugm-3,109.68852,R,ugm-3
03-01-2017,14:00,45.10486,R,ugm-3,47.60170,R,ugm-3,116.76152,R,ugm-3
03-01-2017,15:00,48.95528,R,ugm-3,47.17368,R,ugm-3,122.23739,R,ugm-3
03-01-2017,16:00,40.81440,R,ugm-3,56.69009,R,ugm-3,119.27129,R,ugm-3
03-01-2017,17:00,52.65901,R,ugm-3,65.62275,R,ugm-3,146.36544,R,ugm-3
03-01-2017,18:00,59.62643,R,ugm-3,60.52948,R,ugm-3,151.95539,R,ugm-3
03-01-2017,19:00,40.88774,R,ugm-3,54.80938,R,ugm-3,117.50304,R,ugm-3
03-01-2017,20:00,30.61997,R,ugm-3,40.89212,R,ugm-3,87.84208,R,ugm-3
03-01-2017,21:00,25.96280,R,ugm-3,38.10800,R,ugm-3,77.91707,R,ugm-3
03-01-2017,22:00,17.85859,R,ugm-3,30.17088,R,ugm-3,57.55368,R,ugm-3
03-01-2017,23:00,12.46801,R,ugm-3,23.03544,R,ugm-3,42.15279,R,ugm-3
03-01-2017,24:00,10.04775,R,ugm-3,20.41498,R,ugm-3,35.82132,R,ugm-3
04-01-2017,01:00,8.98888,R,ugm-3,19.50087,R,ugm-3,33.28362,R,ugm-3
04-01-2017,02:00,4.29903,R,ugm-3,13.46961,R,ugm-3,20.06136,R,ugm-3
04-01-2017,03:00,2.08845,R,ugm-3,14.69340,R,ugm-3,17.89565,R,ugm-3
04-01-2017,04:00,6.81494,R,ugm-3,14.51329,R,ugm-3,24.96272,R,ugm-3
04-01-2017,05:00,14.39930,R,ugm-3,20.43779,R,ugm-3,42.51641,R,ugm-3
04-01-2017,06:00,35.24714,R,ugm-3,37.94104,R,ugm-3,91.98590,R,ugm-3
04-01-2017,07:00,60.67491,R,ugm-3,55.26092,R,ugm-3,148.29449,R,ugm-3
04-01-2017,08:00,82.29218,R,ugm-3,69.24770,R,ugm-3,195.42728,R,ugm-3
04-01-2017,09:00,101.27141,R,ugm-3,82.43506,R,ugm-3,237.71572,R,ugm-3
04-01-2017,10:00,76.90618,R,ugm-3,52.94235,R,ugm-3,170.86352,R,ugm-3
04-01-2017,11:00,50.26931,R,ugm-3,61.07129,R,ugm-3,138.14982,R,ugm-3
04-01-2017,12:00,64.44877,R,ugm-3,58.47923,R,ugm-3,157.29930,R,ugm-3
04-01-2017,13:00,84.08751,R,ugm-3,63.07535,R,ugm-3,192.00773,R,ugm-3
04-01-2017,14:00,68.88214,R,ugm-3,54.30314,R,ugm-3,159.92096,R,ugm-3
04-01-2017,15:00,84.96686,R,ugm-3,59.67531,R,ugm-3,189.95600,R,ugm-3
04-01-2017,16:00,87.42170,R,ugm-3,79.22120,R,ugm-3,213.26594,R,ugm-3
04-01-2017,17:00,132.70804,R,ugm-3,95.10088,R,ugm-3,298.58371,R,ugm-3
04-01-2017,18:00,175.20979,R,ugm-3,114.39533,R,ugm-3,383.04659,R,ugm-3
04-01-2017,19:00,169.64060,R,ugm-3,112.56200,R,ugm-3,372.67396,R,ugm-3
04-01-2017,20:00,103.06674,R,ugm-3,100.14256,R,ugm-3,258.17603,R,ugm-3
04-01-2017,21:00,98.63337,R,ugm-3,77.93112,R,ugm-3,229.16684,R,ugm-3
04-01-2017,22:00,83.24480,R,ugm-3,82.71907,R,ugm-3,210.35932,R,ugm-3
04-01-2017,23:00,45.72602,R,ugm-3,61.54043,R,ugm-3,131.65268,R,ugm-3
04-01-2017,24:00,56.71785,R,ugm-3,71.18803,R,ugm-3,158.15419,R,ugm-3
05-01-2017,01:00,53.39924,R,ugm-3,75.72557,R,ugm-3,157.60326,R,ugm-3
05-01-2017,02:00,43.19774,R,ugm-3,70.60338,R,ugm-3,136.83899,R,ugm-3
05-01-2017,03:00,30.34824,R,ugm-3,58.10491,R,ugm-3,104.63823,R,ugm-3
05-01-2017,04:00,52.89893,R,ugm-3,60.51580,R,ugm-3,141.62636,R,ugm-3
05-01-2017,05:00,70.80037,R,ugm-3,70.79635,R,ugm-3,179.35540,R,ugm-3
05-01-2017,06:00,240.44302,R,ugm-3,114.33728,R,ugm-3,483.01144,R,ugm-3
05-01-2017,07:00,557.36068,R,ugm-3,208.47331,R,ugm-3,1063.08110,R,ugm-3
05-01-2017,08:00,511.05124,R,ugm-3,187.60822,R,ugm-3,971.20919,R,ugm-3
05-01-2017,09:00,553.95612,R,ugm-3,195.56996,R,ugm-3,1044.95749,R,ugm-3
05-01-2017,10:00,325.85008,R,ugm-3,137.83129,R,ugm-3,637.46111,R,ugm-3
05-01-2017,11:00,215.25654,R,ugm-3,106.96307,R,ugm-3,437.01849,R,ugm-3
05-01-2017,12:00,212.69396,R,ugm-3,118.47230,R,ugm-3,444.59849,R,ugm-3
05-01-2017,13:00,197.31849,R,ugm-3,105.57249,R,ugm-3,408.12329,R,ugm-3
05-01-2017,14:00,234.25622,R,ugm-3,116.12958,R,ugm-3,475.31745,R,ugm-3
05-01-2017,15:00,221.00404,R,ugm-3,134.45458,R,ugm-3,473.32271,R,ugm-3
05-01-2017,16:00,326.98493,R,ugm-3,135.52128,R,ugm-3,636.89119,R,ugm-3
05-01-2017,17:00,413.67328,R,ugm-3,144.22736,R,ugm-3,778.51755,R,ugm-3
05-01-2017,18:00,404.55783,R,ugm-3,160.42691,R,ugm-3,780.74026,R,ugm-3
05-01-2017,19:00,476.38322,R,ugm-3,172.65907,R,ugm-3,903.10316,R,ugm-3
05-01-2017,20:00,407.01058,R,ugm-3,157.69194,R,ugm-3,781.76612,R,ugm-3
05-01-2017,21:00,419.42078,R,ugm-3,159.12354,R,ugm-3,802.22643,R,ugm-3
05-01-2017,22:00,470.59912,R,ugm-3,156.33722,R,ugm-3,877.91247,R,ugm-3
05-01-2017,23:00,184.13952,R,ugm-3,99.84837,R,ugm-3,382.19171,R,ugm-3
05-01-2017,24:00,89.80005,R,ugm-3,85.26317,R,ugm-3,222.95466,R,ugm-3
06-01-2017,01:00,91.56945,R,ugm-3,85.51374,R,ugm-3,225.91827,R,ugm-3
06-01-2017,02:00,89.80005,R,ugm-3,83.66738,R,ugm-3,221.35887,R,ugm-3
06-01-2017,03:00,101.88077,R,ugm-3,86.45906,R,ugm-3,242.67407,R,ugm-3
06-01-2017,04:00,113.81507,R,ugm-3,99.73391,R,ugm-3,274.24791,R,ugm-3
06-01-2017,05:00,79.73278,R,ugm-3,92.77748,R,ugm-3,215.03270,R,ugm-3
06-01-2017,06:00,138.41581,R,ugm-3,103.73180,R,ugm-3,315.96642,R,ugm-3
06-01-2017,07:00,183.48057,R,ugm-3,105.93108,R,ugm-3,387.26404,R,ugm-3
06-01-2017,08:00,152.98590,R,ugm-3,107.32290,R,ugm-3,341.89801,R,ugm-3
06-01-2017,09:00,135.78002,R,ugm-3,100.64923,R,ugm-3,308.84236,R,ugm-3
06-01-2017,10:00,134.93803,R,ugm-3,97.49485,R,ugm-3,304.39694,R,ugm-3
06-01-2017,11:00,95.65737,R,ugm-3,69.49996,R,ugm-3,216.17255,R,ugm-3
06-01-2017,12:00,98.18334,R,ugm-3,84.49138,R,ugm-3,235.03707,R,ugm-3
06-01-2017,13:00,124.65111,R,ugm-3,96.56911,R,ugm-3,287.69814,R,ugm-3
06-01-2017,14:00,119.96525,R,ugm-3,96.45895,R,ugm-3,280.40310,R,ugm-3
06-01-2017,15:00,140.79535,R,ugm-3,93.13014,R,ugm-3,309.01334,R,ugm-3
06-01-2017,16:00,90.12952,R,ugm-3,83.27618,R,ugm-3,221.47286,R,ugm-3
06-01-2017,17:00,69.07978,R,ugm-3,85.63094,R,ugm-3,191.55179,R,ugm-3
06-01-2017,18:00,39.24405,R,ugm-3,55.35043,R,ugm-3,115.52380,R,ugm-3
06-01-2017,19:00,15.19243,R,ugm-3,38.48514,R,ugm-3,61.77987,R,ugm-3
06-01-2017,20:00,18.01126,R,ugm-3,37.86750,R,ugm-3,65.48438,R,ugm-3
06-01-2017,21:00,8.38329,R,ugm-3,23.84897,R,ugm-3,36.70317,R,ugm-3
06-01-2017,22:00,6.95557,R,ugm-3,20.22488,R,ugm-3,30.88994,R,ugm-3
06-01-2017,23:00,5.52785,R,ugm-3,17.68364,R,ugm-3,26.15956,R,ugm-3
06-01-2017,24:00,5.19837,R,ugm-3,16.65003,R,ugm-3,24.62076,R,ugm-3
07-01-2017,01:00,6.97403,R,ugm-3,18.31047,R,ugm-3,29.00383,R,ugm-3
07-01-2017,02:00,2.14586,R,ugm-3,9.61720,R,ugm-3,12.90746,R,ugm-3
07-01-2017,03:00,5.85233,R,ugm-3,14.37387,R,ugm-3,23.34732,R,ugm-3
07-01-2017,04:00,7.71776,R,ugm-3,28.36921,R,ugm-3,40.20295,R,ugm-3
07-01-2017,05:00,12.28990,R,ugm-3,23.80733,R,ugm-3,42.65157,R,ugm-3
07-01-2017,06:00,26.44522,R,ugm-3,37.52239,R,ugm-3,78.07117,R,ugm-3
07-01-2017,07:00,43.85591,R,ugm-3,42.08901,R,ugm-3,109.33380,R,ugm-3
07-01-2017,08:00,77.39709,R,ugm-3,57.51299,R,ugm-3,176.18686,R,ugm-3
07-01-2017,09:00,96.49032,R,ugm-3,74.19147,R,ugm-3,222.14123,R,ugm-3
07-01-2017,10:00,117.66844,R,ugm-3,73.55088,R,ugm-3,253.97331,R,ugm-3
07-01-2017,11:00,100.95272,R,ugm-3,73.95480,R,ugm-3,228.74681,R,ugm-3
07-01-2017,12:00,87.05343,R,ugm-3,60.24576,R,ugm-3,193.72583,R,ugm-3
07-01-2017,13:00,79.81117,R,ugm-3,74.14069,R,ugm-3,196.51612,R,ugm-3
07-01-2017,14:00,99.34333,R,ugm-3,76.53639,R,ugm-3,228.86070,R,ugm-3
07-01-2017,15:00,92.13765,R,ugm-3,77.05018,R,ugm-3,218.32593,R,ugm-3
07-01-2017,16:00,114.44966,R,ugm-3,82.35851,R,ugm-3,257.84555,R,ugm-3
07-01-2017,17:00,156.22068,R,ugm-3,91.54138,R,ugm-3,331.07641,R,ugm-3
07-01-2017,18:00,128.86103,R,ugm-3,87.82262,R,ugm-3,285.40677,R,ugm-3
07-01-2017,19:00,170.59547,R,ugm-3,91.59488,R,ugm-3,353.17095,R,ugm-3
07-01-2017,20:00,141.07777,R,ugm-3,97.61983,R,ugm-3,313.93606,R,ugm-3
07-01-2017,21:00,67.33839,R,ugm-3,62.40134,R,ugm-3,165.65210,R,ugm-3
07-01-2017,22:00,63.46122,R,ugm-3,50.35173,R,ugm-3,147.65758,R,ugm-3
07-01-2017,23:00,49.85455,R,ugm-3,51.79686,R,ugm-3,128.23944,R,ugm-3
07-01-2017,24:00,35.58949,R,ugm-3,54.65012,R,ugm-3,109.21991,R,ugm-3
08-01-2017,01:00,41.64909,R,ugm-3,49.72462,R,ugm-3,113.58567,R,ugm-3
08-01-2017,02:00,29.99320,R,ugm-3,47.00174,R,ugm-3,92.99068,R,ugm-3
08-01-2017,03:00,15.10633,R,ugm-3,40.50144,R,ugm-3,63.66416,R,ugm-3
08-01-2017,04:00,35.11399,R,ugm-3,41.25693,R,ugm-3,95.09763,R,ugm-3
08-01-2017,05:00,46.85523,R,ugm-3,52.01101,R,ugm-3,123.85470,R,ugm-3
08-01-2017,06:00,36.61365,R,ugm-3,48.58113,R,ugm-3,104.72128,R,ugm-3
08-01-2017,07:00,91.58899,R,ugm-3,69.57752,R,ugm-3,210.01201,R,ugm-3
08-01-2017,08:00,138.33449,R,ugm-3,79.44688,R,ugm-3,291.55680,R,ugm-3
08-01-2017,09:00,170.99781,R,ugm-3,83.97376,R,ugm-3,346.16676,R,ugm-3
08-01-2017,10:00,135.88382,R,ugm-3,80.64200,R,ugm-3,288.99429,R,ugm-3
08-01-2017,11:00,162.32905,R,ugm-3,103.52960,R,ugm-3,352.43067,R,ugm-3
08-01-2017,12:00,91.44268,R,ugm-3,81.58940,R,ugm-3,221.79956,R,ugm-3
08-01-2017,13:00,72.56891,R,ugm-3,80.12032,R,ugm-3,191.39110,R,ugm-3
08-01-2017,14:00,85.26116,R,ugm-3,66.41056,R,ugm-3,197.14251,R,ugm-3
08-01-2017,15:00,119.38757,R,ugm-3,77.52051,R,ugm-3,260.57889,R,ugm-3
08-01-2017,16:00,118.69260,R,ugm-3,102.16121,R,ugm-3,284.15399,R,ugm-3
08-01-2017,17:00,117.26609,R,ugm-3,92.56094,R,ugm-3,272.36644,R,ugm-3
08-01-2017,18:00,68.43570,R,ugm-3,62.88271,R,ugm-3,167.81599,R,ugm-3
08-01-2017,19:00,58.55989,R,ugm-3,63.96007,R,ugm-3,153.75066,R,ugm-3
08-01-2017,20:00,78.27494,R,ugm-3,69.94758,R,ugm-3,189.96748,R,ugm-3
08-01-2017,21:00,57.57231,R,ugm-3,62.62711,R,ugm-3,150.90342,R,ugm-3
08-01-2017,22:00,35.66265,R,ugm-3,55.84768,R,ugm-3,110.52964,R,ugm-3
08-01-2017,23:00,27.10361,R,ugm-3,40.84067,R,ugm-3,82.39896,R,ugm-3
08-01-2017,24:00,12.14359,R,ugm-3,27.10668,R,ugm-3,45.72658,R,ugm-3
09-01-2017,01:00,12.71797,R,ugm-3,24.23291,R,ugm-3,43.73352,R,ugm-3
09-01-2017,02:00,5.11643,R,ugm-3,15.91984,R,ugm-3,23.76492,R,ugm-3
09-01-2017,03:00,3.43531,R,ugm-3,13.97990,R,ugm-3,19.24730,R,ugm-3
09-01-2017,04:00,5.44534,R,ugm-3,13.85903,R,ugm-3,22.20843,R,ugm-3
09-01-2017,05:00,8.04010,R,ugm-3,13.92353,R,ugm-3,26.25150,R,ugm-3
09-01-2017,06:00,46.85183,R,ugm-3,36.92588,R,ugm-3,108.76435,R,ugm-3
09-01-2017,07:00,44.58599,R,ugm-3,43.53209,R,ugm-3,111.89631,R,ugm-3
09-01-2017,08:00,30.84473,R,ugm-3,29.69462,R,ugm-3,76.98922,R,ugm-3
09-01-2017,09:00,31.10055,R,ugm-3,29.07459,R,ugm-3,76.76144,R,ugm-3
09-01-2017,10:00,22.98737,R,ugm-3,39.80630,R,ugm-3,75.05310,R,ugm-3
09-01-2017,11:00,15.93401,R,ugm-3,28.18509,R,ugm-3,52.61689,R,ugm-3
09-01-2017,12:00,13.37580,R,ugm-3,23.50898,R,ugm-3,44.01824,R,ugm-3
09-01-2017,13:00,13.70471,R,ugm-3,19.30325,R,ugm-3,40.31684,R,ugm-3
09-01-2017,14:00,22.18336,R,ugm-3,38.64742,R,ugm-3,72.66142,R,ugm-3
09-01-2017,15:00,9.35575,R,ugm-3,18.73958,R,ugm-3,33.08486,R,ugm-3
09-01-2017,16:00,12.57179,R,ugm-3,26.22234,R,ugm-3,45.49881,R,ugm-3
09-01-2017,17:00,14.69145,R,ugm-3,25.99030,R,ugm-3,48.51687,R,ugm-3
09-01-2017,18:00,69.65647,R,ugm-3,61.35257,R,ugm-3,168.15766,R,ugm-3
09-01-2017,19:00,113.14608,R,ugm-3,95.57542,R,ugm-3,269.06365,R,ugm-3
09-01-2017,20:00,63.00511,R,ugm-3,73.25951,R,ugm-3,169.86600,R,ugm-3
09-01-2017,21:00,23.64519,R,ugm-3,48.30741,R,ugm-3,84.56286,R,ugm-3
09-01-2017,22:00,10.78104,R,ugm-3,28.39867,R,ugm-3,44.92936,R,ugm-3
09-01-2017,23:00,4.89715,R,ugm-3,20.16626,R,ugm-3,27.67512,R,ugm-3
09-01-2017,24:00,4.75097,R,ugm-3,15.55011,R,ugm-3,22.83482,R,ugm-3
10-01-2017,01:00,2.97240,R,ugm-3,14.33215,R,ugm-3,18.88976,R,ugm-3
10-01-2017,02:00,9.35575,R,ugm-3,16.15145,R,ugm-3,30.49673,R,ugm-3
10-01-2017,03:00,2.22930,R,ugm-3,12.68360,R,ugm-3,16.10182,R,ugm-3
10-01-2017,04:00,4.86060,R,ugm-3,15.30593,R,ugm-3,22.75875,R,ugm-3
10-01-2017,05:00,6.28589,R,ugm-3,12.55155,R,ugm-3,22.18978,R,ugm-3
10-01-2017,06:00,21.34280,R,ugm-3,21.83893,R,ugm-3,54.56410,R,ugm-3
10-01-2017,07:00,54.23410,R,ugm-3,56.69472,R,ugm-3,139.85252,R,ugm-3
10-01-2017,08:00,45.57273,R,ugm-3,61.89596,R,ugm-3,131.77316,R,ugm-3
10-01-2017,09:00,51.78553,R,ugm-3,51.68703,R,ugm-3,131.09040,R,ugm-3
10-01-2017,10:00,74.18816,R,ugm-3,56.36807,R,ugm-3,170.12166,R,ugm-3
10-01-2017,11:00,72.50705,R,ugm-3,67.08199,R,ugm-3,178.25791,R,ugm-3
10-01-2017,12:00,86.46758,R,ugm-3,63.94004,R,ugm-3,196.52181,R,ugm-3
10-01-2017,13:00,71.48376,R,ugm-3,69.39066,R,ugm-3,178.99757,R,ugm-3
10-01-2017,14:00,47.80202,R,ugm-3,58.64844,R,ugm-3,131.94385,R,ugm-3
10-01-2017,15:00,65.30751,R,ugm-3,63.38484,R,ugm-3,163.52162,R,ugm-3
10-01-2017,16:00,67.02516,R,ugm-3,63.08391,R,ugm-3,165.85439,R,ugm-3
10-01-2017,17:00,67.82917,R,ugm-3,76.07533,R,ugm-3,180.07861,R,ugm-3
10-01-2017,18:00,50.17751,R,ugm-3,61.66302,R,ugm-3,138.60079,R,ugm-3
10-01-2017,19:00,33.51258,R,ugm-3,50.34637,R,ugm-3,101.73161,R,ugm-3
10-01-2017,20:00,24.48575,R,ugm-3,42.11134,R,ugm-3,79.65563,R,ugm-3
10-01-2017,21:00,13.66816,R,ugm-3,35.54104,R,ugm-3,56.49860,R,ugm-3
10-01-2017,22:00,22.29299,R,ugm-3,35.00449,R,ugm-3,69.18660,R,ugm-3
10-01-2017,23:00,11.43886,R,ugm-3,28.60402,R,ugm-3,46.14337,R,ugm-3
10-01-2017,24:00,6.76099,R,ugm-3,20.30071,R,ugm-3,30.66742,R,ugm-3
11-01-2017,01:00,3.06724,R,ugm-3,17.37296,R,ugm-3,22.07599,R,ugm-3
11-01-2017,02:00,4.89297,R,ugm-3,17.30459,R,ugm-3,24.80704,R,ugm-3
11-01-2017,03:00,2.44649,R,ugm-3,6.83159,R,ugm-3,10.58282,R,ugm-3
11-01-2017,04:00,1.86225,R,ugm-3,8.41017,R,ugm-3,11.26558,R,ugm-3
11-01-2017,05:00,4.96600,R,ugm-3,13.89259,R,ugm-3,21.50702,R,ugm-3
11-01-2017,06:00,15.95693,R,ugm-3,19.17296,R,ugm-3,43.63990,R,ugm-3
11-01-2017,07:00,27.60512,R,ugm-3,38.29561,R,ugm-3,80.62287,R,ugm-3
11-01-2017,08:00,55.10069,R,ugm-3,58.72288,R,ugm-3,143.20943,R,ugm-3
11-01-2017,09:00,78.17799,R,ugm-3,79.66610,R,ugm-3,199.53734,R,ugm-3
11-01-2017,10:00,82.15809,R,ugm-3,87.61688,R,ugm-3,213.59087,R,ugm-3
11-01-2017,11:00,51.33968,R,ugm-3,61.18967,R,ugm-3,139.90942,R,ugm-3
11-01-2017,12:00,43.37947,R,ugm-3,57.12265,R,ugm-3,123.63691,R,ugm-3
11-01-2017,13:00,32.64415,R,ugm-3,41.09513,R,ugm-3,91.14879,R,ugm-3
11-01-2017,14:00,43.81765,R,ugm-3,46.49383,R,ugm-3,113.67996,R,ugm-3
11-01-2017,15:00,47.28655,R,ugm-3,53.63535,R,ugm-3,126.14037,R,ugm-3
11-01-2017,16:00,56.96294,R,ugm-3,75.38310,R,ugm-3,162.72506,R,ugm-3
11-01-2017,17:00,67.66175,R,ugm-3,77.75446,R,ugm-3,181.50103,R,ugm-3
11-01-2017,18:00,46.10590,R,ugm-3,47.72663,R,ugm-3,118.42136,R,ugm-3
11-01-2017,19:00,32.03557,R,ugm-3,59.36285,R,ugm-3,108.48337,R,ugm-3
11-01-2017,20:00,21.79928,R,ugm-3,53.22884,R,ugm-3,86.65394,R,ugm-3
11-01-2017,21:00,10.77184,R,ugm-3,32.30093,R,ugm-3,48.81752,R,ugm-3
11-01-2017,22:00,7.59506,R,ugm-3,22.26494,R,ugm-3,33.91054,R,ugm-3
11-01-2017,23:00,7.19340,R,ugm-3,17.41872,R,ugm-3,28.44844,R,ugm-3
11-01-2017,24:00,3.24981,R,ugm-3,13.79300,R,ugm-3,18.77597,R,ugm-3
12-01-2017,01:00,3.46263,R,ugm-3,13.17177,R,ugm-3,18.48106,R,ugm-3
12-01-2017,02:00,3.80402,R,ugm-3,10.44276,R,ugm-3,16.27550,R,ugm-3
12-01-2017,03:00,4.09663,R,ugm-3,9.40467,R,ugm-3,15.68609,R,ugm-3
12-01-2017,04:00,4.57213,R,ugm-3,10.04455,R,ugm-3,17.05505,R,ugm-3
12-01-2017,05:00,8.19326,R,ugm-3,14.70244,R,ugm-3,27.26527,R,ugm-3
12-01-2017,06:00,18.87377,R,ugm-3,25.02076,R,ugm-3,53.96014,R,ugm-3
12-01-2017,07:00,31.52944,R,ugm-3,25.69386,R,ugm-3,74.03833,R,ugm-3
12-01-2017,08:00,26.44522,R,ugm-3,31.37906,R,ugm-3,71.92783,R,ugm-3
12-01-2017,09:00,45.57503,R,ugm-3,52.75593,R,ugm-3,122.63667,R,ugm-3
12-01-2017,10:00,15.28922,R,ugm-3,27.60794,R,ugm-3,51.05108,R,ugm-3
12-01-2017,11:00,23.88483,R,ugm-3,34.44934,R,ugm-3,71.07223,R,ugm-3
12-01-2017,12:00,40.82001,R,ugm-3,56.68148,R,ugm-3,119.27129,R,ugm-3
12-01-2017,13:00,95.10039,R,ugm-3,80.40332,R,ugm-3,226.22188,R,ugm-3
12-01-2017,14:00,153.95290,R,ugm-3,88.72972,R,ugm-3,324.78754,R,ugm-3
12-01-2017,15:00,246.27343,R,ugm-3,121.26058,R,ugm-3,498.87457,R,ugm-3
12-01-2017,16:00,153.80659,R,ugm-3,89.23926,R,ugm-3,325.07274,R,ugm-3
12-01-2017,17:00,147.51533,R,ugm-3,90.15855,R,ugm-3,316.34557,R,ugm-3
12-01-2017,18:00,89.17490,R,ugm-3,82.87226,R,ugm-3,219.60520,R,ugm-3
12-01-2017,19:00,67.81389,R,ugm-3,62.06450,R,ugm-3,166.04435,R,ugm-3
12-01-2017,20:00,65.36323,R,ugm-3,84.07503,R,ugm-3,184.29725,R,ugm-3
12-01-2017,21:00,28.89589,R,ugm-3,40.96886,R,ugm-3,85.27527,R,ugm-3
12-01-2017,22:00,22.71436,R,ugm-3,34.87506,R,ugm-3,69.70326,R,ugm-3
12-01-2017,23:00,20.81235,R,ugm-3,36.47950,R,ugm-3,68.39134,R,ugm-3
12-01-2017,24:00,8.01038,R,ugm-3,21.42842,R,ugm-3,33.71083,R,ugm-3
13-01-2017,01:00,5.71575,R,ugm-3,19.65157,R,ugm-3,28.41561,R,ugm-3
13-01-2017,02:00,3.12657,R,ugm-3,21.56471,R,ugm-3,26.35871,R,ugm-3
13-01-2017,03:00,4.72649,R,ugm-3,22.46351,R,ugm-3,29.71069,R,ugm-3
13-01-2017,04:00,4.43337,R,ugm-3,14.05688,R,ugm-3,20.85462,R,ugm-3
13-01-2017,05:00,18.02660,R,ugm-3,28.63849,R,ugm-3,56.27890,R,ugm-3
13-01-2017,06:00,37.04247,R,ugm-3,42.33319,R,ugm-3,99.13085,R,ugm-3
13-01-2017,07:00,71.22707,R,ugm-3,74.07878,R,ugm-3,183.29209,R,ugm-3
13-01-2017,08:00,55.10571,R,ugm-3,67.60162,R,ugm-3,152.09587,R,ugm-3
13-01-2017,09:00,30.92369,R,ugm-3,49.65830,R,ugm-3,97.07396,R,ugm-3
13-01-2017,10:00,43.34446,R,ugm-3,49.63966,R,ugm-3,116.10023,R,ugm-3
13-01-2017,11:00,43.82077,R,ugm-3,45.59543,R,ugm-3,112.78634,R,ugm-3
13-01-2017,12:00,44.70011,R,ugm-3,45.56125,R,ugm-3,114.10047,R,ugm-3
13-01-2017,13:00,41.91552,R,ugm-3,47.37406,R,ugm-3,111.64362,R,ugm-3
13-01-2017,14:00,43.74749,R,ugm-3,52.10702,R,ugm-3,119.18557,R,ugm-3
13-01-2017,15:00,63.05647,R,ugm-3,60.09577,R,ugm-3,156.78101,R,ugm-3
13-01-2017,16:00,63.34959,R,ugm-3,66.44551,R,ugm-3,163.58019,R,ugm-3
13-01-2017,17:00,93.10081,R,ugm-3,67.39339,R,ugm-3,210.14598,R,ugm-3
13-01-2017,18:00,54.33629,R,ugm-3,60.21100,R,ugm-3,143.52548,R,ugm-3
13-01-2017,19:00,57.89031,R,ugm-3,60.81798,R,ugm-3,149.58188,R,ugm-3
13-01-2017,20:00,63.42287,R,ugm-3,68.84713,R,ugm-3,166.09417,R,ugm-3
13-01-2017,21:00,38.87444,R,ugm-3,46.09484,R,ugm-3,105.70148,R,ugm-3
13-01-2017,22:00,32.42590,R,ugm-3,53.12566,R,ugm-3,102.84469,R,ugm-3
13-01-2017,23:00,27.91925,R,ugm-3,34.66741,R,ugm-3,77.47633,R,ugm-3
13-01-2017,24:00,18.79603,R,ugm-3,35.11493,R,ugm-3,63.93511,R,ugm-3
14-01-2017,01:00,16.62401,R,ugm-3,31.10222,R,ugm-3,56.59202,R,ugm-3
14-01-2017,02:00,12.61469,R,ugm-3,28.31418,R,ugm-3,47.65644,R,ugm-3
14-01-2017,03:00,5.61061,R,ugm-3,22.09894,R,ugm-3,30.70175,R,ugm-3
14-01-2017,04:00,5.53726,R,ugm-3,24.38801,R,ugm-3,32.87836,R,ugm-3
14-01-2017,05:00,5.97731,R,ugm-3,24.85887,R,ugm-3,34.02395,R,ugm-3
14-01-2017,06:00,6.82074,R,ugm-3,22.82100,R,ugm-3,33.27932,R,ugm-3
14-01-2017,07:00,25.08270,R,ugm-3,29.24461,R,ugm-3,67.70422,R,ugm-3
14-01-2017,08:00,41.14444,R,ugm-3,50.03951,R,ugm-3,113.12677,R,ugm-3
14-01-2017,09:00,44.51813,R,ugm-3,49.56349,R,ugm-3,117.82367,R,ugm-3
14-01-2017,10:00,61.79000,R,ugm-3,55.90142,R,ugm-3,150.64476,R,ugm-3
14-01-2017,11:00,59.77311,R,ugm-3,65.40922,R,ugm-3,157.06005,R,ugm-3
14-01-2017,12:00,59.88312,R,ugm-3,55.27393,R,ugm-3,147.09344,R,ugm-3
14-01-2017,13:00,72.90119,R,ugm-3,70.82638,R,ugm-3,182.60665,R,ugm-3
14-01-2017,14:00,70.81097,R,ugm-3,73.68767,R,ugm-3,182.26297,R,ugm-3
14-01-2017,15:00,88.26618,R,ugm-3,65.08094,R,ugm-3,200.42053,R,ugm-3
14-01-2017,16:00,114.15564,R,ugm-3,84.66848,R,ugm-3,259.70469,R,ugm-3
14-01-2017,17:00,150.49622,R,ugm-3,108.79448,R,ugm-3,339.55214,R,ugm-3
14-01-2017,18:00,145.28900,R,ugm-3,100.16776,R,ugm-3,322.94112,R,ugm-3
14-01-2017,19:00,145.69237,R,ugm-3,105.27720,R,ugm-3,328.66905,R,ugm-3
14-01-2017,20:00,157.28029,R,ugm-3,101.19908,R,ugm-3,342.35882,R,ugm-3
14-01-2017,21:00,111.80872,R,ugm-3,85.97586,R,ugm-3,257.41351,R,ugm-3
14-01-2017,22:00,102.31103,R,ugm-3,79.68909,R,ugm-3,236.56382,R,ugm-3
14-01-2017,23:00,56.03271,R,ugm-3,64.67186,R,ugm-3,150.58748,R,ugm-3
14-01-2017,24:00,55.92270,R,ugm-3,60.83098,R,ugm-3,146.57792,R,ugm-3
15-01-2017,01:00,44.03060,R,ugm-3,63.33480,R,ugm-3,130.84745,R,ugm-3
15-01-2017,02:00,15.97885,R,ugm-3,41.24856,R,ugm-3,65.74912,R,ugm-3
15-01-2017,03:00,6.06094,R,ugm-3,29.63935,R,ugm-3,38.93267,R,ugm-3
15-01-2017,04:00,9.40364,R,ugm-3,22.15961,R,ugm-3,36.57833,R,ugm-3
15-01-2017,05:00,6.72214,R,ugm-3,22.13676,R,ugm-3,32.44389,R,ugm-3
15-01-2017,06:00,32.87602,R,ugm-3,33.71522,R,ugm-3,84.12442,R,ugm-3
15-01-2017,07:00,26.66815,R,ugm-3,33.41453,R,ugm-3,74.30512,R,ugm-3
15-01-2017,08:00,16.30945,R,ugm-3,26.84533,R,ugm-3,51.85280,R,ugm-3
15-01-2017,09:00,16.34618,R,ugm-3,23.45849,R,ugm-3,48.52228,R,ugm-3